THORAD AGENA D DEB, 4689

Orbit data source: Space-Track

THORAD AGENA D DEB, 4689 is space debris in SSO originally from a launch on Wed, 08 Apr 1970 UTC launched from the Air Force Western Test Range (AFWTR). Debris objects in space refer to the collection of defunct objects orbiting the Earth. Examples of debris include non-operational satellites, rocket bodies, and fragments generated from explosions, collisions, or faulty payload assembly.

Loading next visibility...
Identifier
4689, 1970-025BN
Orbit
SSO
Country
Flag of USUS
Related business
Manufacturer
Unknown
Mission
Spacecraft
Bus & Motor
Unknown
Mass
Unknown
Launch date (UTC)
1970-04-08 (56 years ago)
Launch vehicle
Unknown
Launch site
Air Force Western Test Range (AFWTR)
Object type
Payload
Rocket body
Debris
Shape & HBR
Unknown shape, 0.1 m
Radar Cross Section
Medium (>0.1 m² and <1 m²)

Expand to show TLE details & history
Last TLE update: 13 hours ago

TLE from 13 hours ago
0 THORAD AGENA D DEB
1 04689U 70025BN  26208.06480457  .00000212  00000-0  35650-3 0  9990
2 04689  99.3602  40.1803 0068469 275.9542 210.9022 13.56157700775821
Epoch: 2026-07-27T01:33Z
TLE epoch observation values (Epoch: 2026-07-27T01:33:19.114Z)
Latitude
52.62056°
Longitude
-95.50793°
Altitude
1,101.905 km
Speed
7.285 km/s
True Right ascension
15h 30m 18s
True Declination
52° 27' 44"
Sunlit
Object was in daylight at epoch
Visualization orbit readout
Latitude
Unknown
Longitude
Unknown
Altitude
Unknown
Speed
Unknown
Apparent Right ascension
Unknown
Apparent Declination
Unknown
Sunlit
N/A
Visualization observer readout
Local Sidereal Time
03:53:46
Azimuth
Unknown
Elevation
Unknown
Doppler factor
Unknown
Orbital elements
Apogee altitude
1,097.804 km
Perigee altitude
996.126 km
Semi-major axis
7,425.102 km
Eccentricity
0.00685
Inclination
99.3602°
RAAN
40.1803°
Arg. of periapsis
275.9542°
True anomaly
210.50219°
Mean anomaly
210.9022°
Eccentric anomaly
210.7019°
Mean motion
3.39226 °/min
Orbital period
106.12 mins
BSTAR
0.0003565
Loading maneuver chart data...
Computing Atmospheric mass density...

Documentation

Showing up to 5 results
|